Ravenna, OH

2:43 PM EDT on July 23, 2017 (GMT -0400)
Ravenna

Weather History for KPOV - March, 2013

Change the Weather History Date:

Sunday, March 24, 2013

  Actual Average (KCAK) Record (KCAK)
Temperature  
Mean Temperature 30 °F -  
Max Temperature 35 °F 46 °F 82 °F (1910)
Min Temperature 24 °F 28 °F 8 °F (1906)
Degree Days  
Heating Degree Days 36    
Moisture  
Dew Point 22 °F    
Average Humidity 74    
Maximum Humidity 91    
Minimum Humidity 57    
Precipitation  
Precipitation 0.00 in - - ()
Sea Level Pressure  
Sea Level Pressure 29.78 in    
Wind  
Wind Speed 9 mph (ENE)    
Max Wind Speed 17 mph    
Max Gust Speed 25 mph    
Visibility 10 miles    
Events      
Averages and records for this station are not official NWS values.
T = Trace of Precipitation, MM = Missing Value Source: NWS Daily Summary

Daily Weather History Graph

Daily Weather History Graph

Search for Another Location

Airport or City:

Trip Planner

Search our weather history database for the weather conditions in past years. The results will help you decide how hot, cold, wet, or windy it might be!

Date:

Astronomy

Mar. 24, 2013 Rise Set
Actual Time 7:21 AM EDT 7:41 PM EDT
Civil Twilight 6:53 AM EDT 8:09 PM EDT
Nautical Twilight 6:21 AM EDT 8:41 PM EDT
Astronomical Twilight 5:48 AM EDT 9:15 PM EDT
Moon 5:07 PM EDT (3/24) 5:32 AM EDT (3/24)
Length of Visible Light 13h 15m
Length of Day
12h 20m
Waxing Gibbous, 91% of the Moon is Illuminated
Mar 24
Waxing Gibbous
Mar 27
Full
Apr 3
Last Quarter
Apr 10
New
Apr 18
First Quarter

Hourly Weather History & Observations

Time (EDT) Temp. Windchill Dew Point Humidity Pressure Visibility Wind Dir Wind Speed Gust Speed Precip Events Conditions
12:16 AM 27.3 °F 19.9 °F 21.0 °F 77% 30.00 in 10.0 mi NE 6.9 mph - N/A   Clear
12:36 AM 27.5 °F 18.6 °F 21.2 °F 77% 29.98 in 10.0 mi ENE 9.2 mph - N/A   Clear
12:57 AM 27.3 °F 19.9 °F 21.0 °F 77% 29.97 in 10.0 mi ENE 6.9 mph - N/A   Clear
1:16 AM 27.0 °F 18.0 °F 20.8 °F 78% 29.96 in 10.0 mi NE 9.2 mph - N/A   Clear
1:36 AM 26.2 °F 18.6 °F 20.8 °F 80% 29.96 in 10.0 mi ENE 6.9 mph - N/A   Clear
1:57 AM 25.7 °F 20.1 °F 20.1 °F 79% 29.98 in 10.0 mi East 4.6 mph - N/A   Clear
2:16 AM 25.3 °F 19.7 °F 20.5 °F 82% 29.97 in 10.0 mi ENE 4.6 mph - N/A   Clear
2:36 AM 24.8 °F 17.9 °F 20.3 °F 83% 29.96 in 10.0 mi NE 5.8 mph - N/A   Clear
2:57 AM 24.8 °F 19.1 °F 20.7 °F 84% 29.95 in 10.0 mi East 4.6 mph - N/A   Clear
3:16 AM 25.2 °F 17.3 °F 21.0 °F 84% 29.95 in 10.0 mi East 6.9 mph - N/A   Clear
3:36 AM 24.8 °F 20.5 °F 21.2 °F 86% 29.95 in 10.0 mi East 3.5 mph - N/A   Clear
3:56 AM 24.8 °F - 21.2 °F 86% 29.97 in 10.0 mi Calm Calm - N/A   Clear
4:17 AM 24.3 °F 18.4 °F 21.0 °F 87% 29.96 in 10.0 mi ENE 4.6 mph - N/A   Clear
4:36 AM 24.3 °F 18.4 °F 21.4 °F 89% 29.95 in 10.0 mi ENE 4.6 mph - N/A   Clear
4:56 AM 24.3 °F 17.3 °F 21.9 °F 91% 29.95 in 10.0 mi ENE 5.8 mph - N/A   Clear
5:16 AM 24.8 °F 16.9 °F 22.1 °F 89% 29.95 in 10.0 mi East 6.9 mph - N/A   Clear
5:36 AM 24.8 °F 17.9 °F 22.1 °F 89% 29.95 in 10.0 mi East 5.8 mph - N/A   Clear
5:56 AM 24.8 °F 16.9 °F 22.1 °F 89% 29.95 in 10.0 mi East 6.9 mph - N/A   Clear
6:16 AM 25.3 °F 17.6 °F 22.5 °F 89% 29.95 in 10.0 mi East 6.9 mph - N/A   Clear
6:36 AM 25.3 °F 16.7 °F 22.5 °F 89% 29.94 in 10.0 mi East 8.1 mph - N/A   Clear
6:57 AM 25.2 °F 18.3 °F 22.5 °F 89% 29.94 in 10.0 mi East 5.8 mph - N/A   Clear
7:16 AM 25.0 °F 18.1 °F 22.5 °F 90% 29.94 in 10.0 mi East 5.8 mph - N/A   Clear
7:36 AM 25.3 °F 16.7 °F 22.8 °F 90% 29.94 in 10.0 mi East 8.1 mph - N/A   Clear
7:56 AM 25.5 °F 16.9 °F 22.8 °F 89% 29.93 in 10.0 mi ENE 8.1 mph - N/A   Clear
8:16 AM 26.1 °F 16.8 °F 23.2 °F 89% 29.93 in 10.0 mi East 9.2 mph - N/A   Clear
8:36 AM 26.6 °F 16.2 °F 23.2 °F 87% 29.94 in 10.0 mi East 11.5 mph - N/A   Clear
8:56 AM 27.3 °F 16.6 °F 23.7 °F 86% 29.93 in 10.0 mi East 12.7 mph - N/A   Clear
9:16 AM 27.3 °F 17.1 °F 23.5 °F 86% 29.92 in 10.0 mi East 11.5 mph - N/A   Clear
9:36 AM 28.0 °F 18.1 °F 23.5 °F 83% 29.90 in 10.0 mi ENE 11.5 mph - N/A   Clear
9:57 AM 28.2 °F 17.7 °F 23.7 °F 83% 29.89 in 10.0 mi ENE 12.7 mph - N/A   Clear
10:16 AM 28.4 °F 18.0 °F 23.7 °F 83% 29.88 in 10.0 mi ENE 12.7 mph - N/A   Clear
10:36 AM 28.9 °F 18.2 °F 23.7 °F 81% 29.86 in 10.0 mi East 13.8 mph - N/A   Clear
10:56 AM 29.5 °F 18.8 °F 23.9 °F 80% 29.84 in 10.0 mi ENE 13.8 mph - N/A   Clear
11:16 AM 30.2 °F 20.8 °F 23.7 °F 77% 29.83 in 10.0 mi ENE 11.5 mph - N/A   Clear
11:36 AM 30.9 °F 22.2 °F 22.6 °F 71% 29.81 in 10.0 mi ENE 10.4 mph 18.4 mph N/A   Clear
11:55 AM 31.5 °F 20.1 °F 21.7 °F 67% 29.80 in 10.0 mi ENE 17.3 mph 23.0 mph N/A   Clear
12:16 PM 31.8 °F 22.3 °F 21.9 °F 67% 29.78 in 10.0 mi ENE 12.7 mph 23.0 mph N/A   Clear
12:36 PM 32.0 °F 21.2 °F 21.6 °F 65% 29.76 in 10.0 mi ENE 16.1 mph 25.3 mph N/A   Clear
12:56 PM 32.5 °F 23.2 °F 21.4 °F 64% 29.76 in 10.0 mi ENE 12.7 mph 25.3 mph N/A   Clear
1:16 PM 33.1 °F 24.9 °F 21.4 °F 62% 29.76 in 10.0 mi ENE 10.4 mph 18.4 mph N/A   Clear
1:37 PM 34.0 °F 24.6 °F 21.7 °F 61% 29.75 in 10.0 mi NE 13.8 mph 18.4 mph N/A   Clear
1:56 PM 35.6 °F 28.0 °F 22.8 °F 60% 29.75 in 10.0 mi NE 10.4 mph - N/A   Clear
2:16 PM 34.0 °F 24.6 °F 21.0 °F 59% 29.74 in 10.0 mi ENE 13.8 mph 20.7 mph N/A   Clear
2:36 PM 33.8 °F 24.8 °F 21.2 °F 60% 29.74 in 10.0 mi ENE 12.7 mph - N/A   Clear
2:56 PM 33.4 °F 24.3 °F 20.1 °F 58% 29.72 in 10.0 mi ENE 12.7 mph - N/A   Clear
3:16 PM 33.3 °F 23.2 °F 20.1 °F 59% 29.71 in 10.0 mi ENE 15.0 mph 18.4 mph N/A   Scattered Clouds
3:36 PM 33.6 °F 24.1 °F 19.9 °F 57% 29.71 in 10.0 mi ENE 13.8 mph - N/A   Scattered Clouds
3:56 PM 33.8 °F 24.8 °F 19.9 °F 57% 29.69 in 10.0 mi ENE 12.7 mph - N/A   Scattered Clouds
4:16 PM 33.8 °F 25.8 °F 20.1 °F 57% 29.68 in 10.0 mi ENE 10.4 mph - N/A   Scattered Clouds
4:36 PM 33.8 °F 25.3 °F 20.7 °F 59% 29.67 in 10.0 mi ENE 11.5 mph - N/A   Overcast
4:57 PM 33.4 °F 23.5 °F 20.5 °F 59% 29.64 in 10.0 mi ENE 15.0 mph - N/A   Overcast
5:16 PM 33.8 °F 24.3 °F 20.8 °F 59% 29.63 in 10.0 mi ENE 13.8 mph - N/A   Overcast
5:36 PM 33.8 °F 24.8 °F 21.4 °F 60% 29.61 in 10.0 mi ENE 12.7 mph - N/A   Overcast
5:56 PM 34.0 °F 24.6 °F 21.6 °F 60% 29.60 in 10.0 mi ENE 13.8 mph 18.4 mph N/A   Overcast
6:16 PM 33.8 °F 24.3 °F 21.6 °F 61% 29.59 in 10.0 mi NE 13.8 mph - N/A   Mostly Cloudy
6:36 PM 33.3 °F 25.1 °F 22.1 °F 64% 29.60 in 10.0 mi NE 10.4 mph - N/A   Mostly Cloudy
6:56 PM 32.9 °F 23.2 °F 21.9 °F 64% 29.58 in 10.0 mi NE 13.8 mph 17.3 mph N/A   Overcast
7:16 PM 32.4 °F 24.6 °F 21.9 °F 65% 29.59 in 10.0 mi ENE 9.2 mph 17.3 mph N/A   Mostly Cloudy
7:36 PM 32.2 °F 25.0 °F 21.9 °F 66% 29.59 in 10.0 mi NE 8.1 mph - N/A   Overcast
7:57 PM 32.0 °F 23.6 °F 21.9 °F 66% 29.58 in 10.0 mi NE 10.4 mph - N/A   Overcast
8:16 PM 32.0 °F 23.0 °F 22.1 °F 67% 29.57 in 10.0 mi NE 11.5 mph - N/A   Overcast
8:36 PM 32.0 °F 23.0 °F 21.9 °F 66% 29.56 in 10.0 mi NE 11.5 mph - N/A   Overcast
8:56 PM 32.0 °F 23.0 °F 22.3 °F 67% 29.56 in 10.0 mi NE 11.5 mph - N/A   Overcast
9:16 PM 31.8 °F 22.8 °F 22.5 °F 68% 29.56 in 10.0 mi NE 11.5 mph - N/A   Overcast
9:36 PM 32.0 °F 22.5 °F 22.6 °F 68% 29.56 in 10.0 mi NE 12.7 mph 17.3 mph N/A   Overcast
9:56 PM 31.8 °F 22.8 °F 22.8 °F 69% 29.54 in 10.0 mi NE 11.5 mph - N/A   Overcast
10:16 PM 32.0 °F 21.6 °F 22.8 °F 69% 29.53 in 10.0 mi ENE 15.0 mph 19.6 mph N/A   Overcast
10:36 PM 32.0 °F 22.5 °F 22.8 °F 69% 29.52 in 10.0 mi ENE 12.7 mph - N/A   Overcast
10:56 PM 32.0 °F 22.1 °F 22.8 °F 69% 29.52 in 10.0 mi ENE 13.8 mph 19.6 mph N/A   Overcast
11:16 PM 32.0 °F 21.6 °F 23.0 °F 69% 29.50 in 10.0 mi NE 15.0 mph - N/A   Overcast
11:36 PM 32.0 °F 22.5 °F 23.0 °F 69% 29.50 in 10.0 mi ENE 12.7 mph 16.1 mph N/A   Overcast
11:57 PM 32.4 °F 23.5 °F 23.2 °F 69% 29.50 in 10.0 mi East 11.5 mph 16.1 mph N/A   Overcast